Погода Батамай

Погода Батамай : погода сейчас, прогноз погоды и архив. Всё, что Вы хотите узнать о погоде Батамай!

Поиск расширенной информации на нашем сайте:

Другие новости

Новости СМИ2

Главная страница сайта

Новости сайта

03.07.2017

Напоминаем, что на нашем специализированном сайте Метеоцентр.Азия вы можете получить высокодетализированные автоматические прогнозы погоды по пунктам России, СНГ и мира в авиационном формате (включающие направление и скорость ветра, видимость, явления погоды, количество и форму облачности, нижнюю и верхнюю границу облачности).


Погода Батамай - сегодня

Время (UTC), дата Ветер
(°,м/с) 
Видим.   Явления Облачность Т
(°С)
Тd
(°С)
f(%) Тe
(°С)
Pmin
(гПа)
dP
(гПа)
Po
(мм)
O2
(г/м3)
Тmin Tmax R s Состояние
почвы
21 22.09.18 280 (З) 20000 м    10/0 средняя 
[Ac As]
+4.2 +1.4 82 +5  1012.3  -0.3  752  298           
03 23.09.18 260 (З) 20000 м    3/1 600 м верхняя 
[Cu hum|Ci fib]
+9.7 +2.1 59 +9  1011.1  -0.3  751  292           
06 23.09.18 270 (З) 20000 м    8/6 600 м кучево-дожд., средняя 
[Cb cap|Ac trans]
+10.2 +3.1 61 +9  1010.7  -0.4  751  291           
09 23.09.18 270 (З) 20000 м    3/3 600 м кучево-дожд. 
[Cb cap]
+11.2 -2.2 39 +11  1011.2  0.5  751  291           
12 23.09.18 280 (З) 20000 м    3/0 средняя 
[Ac trans]
+6.6 -2.1 54 +6  1013  1.6  752  296    +13.3       
15 23.09.18 310 (СЗ) 20000 м    ясно 
+2.4 -0.3 82 +3  1013.7  0.5  753  301           
18 23.09.18 310 (СЗ) 20000 м    ясно средняя, верхняя 
[Ac trans|Cs]
-1 -2.5 90 1014.2  0.5  753  305           
21 23.09.18 320 (СЗ) 20000 м    10/0 средняя, верхняя 
[Ac trans|Cs]
-1.4 -2.9 89 -1  1015.3  754  306           
00 24.09.18 320 (СЗ) 20000 м    10/0 верхняя 
[Cs]
+1.4 -2.4 76 +2  1016.2  0.9  755  303  -1.4        сухая 
03 24.09.18 220 (ЮЗ) 20000 м    10/0 верхняя 
[Cs]
+7.9 +2.1 67 +9  1016  0.2  755  295           
06 24.09.18 210 (ЮЗ) 20000 м    10/0 средняя, верхняя 
[Ac trans|Ci fib]
+9.4 +2 60 +9  1015.6  -0.4  754  294           
09 24.09.18 тихо ()   20000 м    10/0 средняя, верхняя 
[Ac trans|Ci fib]
+8.5 +1.7 62 +9  1015.2  -0.4  754  294           
12 24.09.18 090 (В) 20000 м    10/0 верхняя 
[Cs]
+1 -0.7 88 +2  1015.5  -0.1  754  303  +10.3         
15 24.09.18 040 (СВ) 20000 м    10/3 600 м кучево-дожд., средняя 
[Cb cap|Ac trans]
+0 -2.1 86 +1  1015.2  -0.3  754  304           
18 24.09.18 040 (СВ) 20000 м    10/3 600 м средняя, верхняя 
[Sc|Ac trans|Ci fib]
+1.7 +0.1 89 +2  1014.6  -0.5  753  302           
21 24.09.18 040 (СВ) 20000 м    10/0 средняя, верхняя 
[Ac trans|Cs]
+1.1 -0.6 88 +2  1013.7  -0.9  753  302           
00 25.09.18 050 (СВ) 20000 м    9/0 верхняя 
[Ci fib]
+4 +0.6 78 +5  1014  0.5  753  299  +0        сухая 
03 25.09.18 110 (В) 20000 м    8/0 верхняя 
[Ci fib]
+9.1 +2.2 62 +10  1013.3  -0.5  753  293           
06 25.09.18 140 (ЮВ) 20000 м    8/0 верхняя 
[Ci fib]
+11.5 +1.6 51 +13  1012.8  -0.5  752  291           
09 25.09.18 070 (В) 20000 м    10/0 средняя, верхняя 
[Ac trans|Cs]
+10.9 +2 54 +12  1012.5  -0.3  752  291           
12 25.09.18 070 (В) 20000 м    10/0 верхняя 
[Cs]
+6.3 +0.1 64 +5  1013.3  0.6  753  296    +12.1       
15 25.09.18 040 (СВ) 20000 м    10/0 верхняя 
[Cs]
+4.3 +0.1 74 +4  1013.3  753  299           
18 25.09.18 050 (СВ) 20000 м    10/0 верхняя 
[Cs]
+3 +0.1 81 +4  1012.5  -0.8  752  300           
21 25.09.18 020 (С) 20000 м    10/0 средняя, верхняя 
[Ac trans|Cs]
-1 -1 100 1012.5  -0.2  752  304           
00 26.09.18 050 (СВ) 20000 м    4/0 верхняя 
[Ci fib]
+4 +0.3 77 +5  1012.6  0.3  752  299  -1.6        сухая 
Время (UTC), дата Ветер
(°,м/с) 
Видим.   Явления Облачность Т
(°С)
Тd
(°С)
f(%) Тe
(°С)
Pmin
(гПа)
dP
(гПа)
Po
(мм)
O2
(г/м3)
Тmin Tmax R s Состояние
почвы

Для получения пояснительной информации подведите курсор к названию столбца.

ПОГОДА Батамай - архив

Всё, что Вы хотите узнать о погоде Батамай - удобно и подробно!

Выберите нужную дату (начиная с 1 января 2015* года) и нажмите кнопку "Найти".
Будут отображены архивные сводки погоды по пункту Батамай, начиная с указанной даты.


Отображать данные в формате CSV (для использования в таблицах Excel)


Внимание! Наш архив погоды предназначен исключительно для личного некоммерческого использования в познавательных целях. Если Вам необходимы официальные справки о состоянии погоды (для производственных, юридических, коммерческих и т.п. целей), обращайтесь в органы Росгидромета.

*Примечание: данная дата относится к архиву по метеостанциям СССР (Россия, СНГ, Балтия).
Архив по метеостанциям Зарубежной Европы и Азии (кроме Китая) хранится 10 дней, по другим регионам земного шара (Китай, Африка, Америка, Австралия, Океания) - 1 день.

Батамай - район местоположения метеостанции


Название, широта, долгота, высота метеостанции:
Батамай 63.5°ш. 129.5°д. 79 м над ур. моря [Российская Федерация]

Дополнительная информация

В oтличие oт бoльшинства пoгoдных сайтoв мы публикуем пoдрoбную метеoинфoрмацию в детальнoм прoфессиoнальнoм фoрмате.

Характеристики температуры и влажнoсти вoздуха измеряются на высoте 2 м в тени вдали oт зданий и деревьев.
Скoрoсть ветра измеряется на высoте 10 м (на урoвне рoста челoвека скoрoсть ветра ниже в 1.5-2 раза). Если метеoстанция нахoдится в гoрoде или в лесу, тo скoрoсть ветра занижена на 2-4 м/с пo сравнению с oткрытым местoм. Скoрoсть ветра над акватoриями крупных рек и oзёр, а также на вершинах хoлмoв на 2-5 м/с выше, чем в oбычных услoвиях.
Атмoсфернoе давление в разных тoчках местнoсти мoжет значительнo oтличаться oт давления на метеoстанции, в зависимoсти oт услoвий рельефа (при пoдъёме на 10 м давление пoнижается примернo на 1 мм рт.ст.).